Time,TemperatureF,DewpointF,PressureIn,WindDirection,WindDirectionDegrees,WindSpeedMPH,WindSpeedGustMPH,Humidity,HourlyPrecipIn,Conditions,Clouds,dailyrainin,SoftwareType,DateUTC
2013-08-24 00:13:00,76.0,67.0,30.04,SE,134,0.0,1.0,73,0.00,,,0.00,,2013-08-24 05:13:00,
2013-08-24 00:23:00,76.0,67.0,30.05,ESE,122,0.0,1.0,73,0.00,,,0.00,,2013-08-24 05:23:00,
2013-08-24 00:43:00,76.0,67.0,30.05,South,173,0.0,1.0,73,0.00,,,0.00,,2013-08-24 05:43:00,
2013-08-24 00:53:00,75.0,66.0,30.06,SSE,167,0.0,4.0,74,0.00,,,0.00,,2013-08-24 05:53:00,
2013-08-24 01:12:00,75.0,67.0,30.06,SSE,167,0.0,1.0,75,0.00,,,0.00,,2013-08-24 06:12:00,
2013-08-24 01:22:00,74.0,66.0,30.06,SSE,167,0.0,1.0,76,0.00,,,0.00,,2013-08-24 06:22:00,
2013-08-24 01:42:00,74.0,66.0,30.06,SE,140,0.0,1.0,77,0.00,,,0.00,,2013-08-24 06:42:00,
2013-08-24 01:52:00,74.0,66.0,30.06,South,190,0.0,1.0,77,0.00,,,0.00,,2013-08-24 06:52:00,
2013-08-24 02:12:00,75.0,67.0,30.06,SSE,154,0.0,1.0,77,0.00,,,0.00,,2013-08-24 07:12:00,
2013-08-24 02:22:00,74.0,66.0,30.06,SSE,149,0.0,1.0,77,0.00,,,0.00,,2013-08-24 07:22:00,
2013-08-24 02:43:00,74.0,66.0,30.06,SSE,153,0.0,0.0,77,0.00,,,0.00,,2013-08-24 07:43:00,
2013-08-24 02:53:00,74.0,67.0,30.06,East,96,0.0,2.0,78,0.00,,,0.00,,2013-08-24 07:53:00,
2013-08-24 03:12:00,74.0,67.0,30.06,SSE,168,0.0,2.0,79,0.00,,,0.00,,2013-08-24 08:12:00,
2013-08-24 03:22:00,73.0,66.0,30.06,ESE,117,0.0,2.0,79,0.00,,,0.00,,2013-08-24 08:22:00,
2013-08-24 03:52:00,73.0,67.0,30.07,SE,137,0.0,1.0,81,0.00,,,0.00,,2013-08-24 08:52:00,
2013-08-24 04:11:00,72.0,66.0,30.07,SE,146,0.0,1.0,82,0.00,,,0.00,,2013-08-24 09:11:00,
2013-08-24 04:22:00,72.0,67.0,30.08,South,169,0.0,3.0,83,0.00,,,0.00,,2013-08-24 09:22:00,
2013-08-24 04:44:00,72.0,67.0,30.08,SSE,165,0.0,4.0,83,0.00,,,0.00,,2013-08-24 09:44:00,
2013-08-24 04:53:00,72.0,67.0,30.08,SSE,168,0.0,1.0,84,0.00,,,0.00,,2013-08-24 09:53:00,
2013-08-24 05:13:00,71.0,66.0,30.08,South,173,0.0,3.0,84,0.00,,,0.00,,2013-08-24 10:13:00,
2013-08-24 05:23:00,71.0,66.0,30.08,SSE,161,0.0,2.0,85,0.00,,,0.00,,2013-08-24 10:23:00,
2013-08-24 05:42:00,71.0,66.0,30.09,SSE,148,0.0,2.0,85,0.00,,,0.00,,2013-08-24 10:42:00,
2013-08-24 05:53:00,71.0,66.0,30.09,East,88,0.0,1.0,85,0.00,,,0.00,,2013-08-24 10:53:00,
2013-08-24 06:12:00,71.0,67.0,30.09,SSE,160,0.0,1.0,86,0.00,,,0.00,,2013-08-24 11:12:00,
2013-08-24 06:22:00,71.0,67.0,30.09,South,178,0.0,5.0,86,0.00,,,0.00,,2013-08-24 11:22:00,
2013-08-24 06:52:00,71.0,67.0,30.10,SSE,156,0.0,5.0,86,0.00,,,0.00,,2013-08-24 11:52:00,
2013-08-24 07:12:00,71.0,67.0,30.10,SSE,148,0.0,4.0,86,0.00,,,0.00,,2013-08-24 12:12:00,
2013-08-24 07:21:00,71.0,67.0,30.11,SSE,149,0.0,1.0,86,0.00,,,0.00,,2013-08-24 12:21:00,
2013-08-24 07:42:00,71.0,67.0,30.11,ESE,119,0.0,1.0,87,0.00,,,0.00,,2013-08-24 12:42:00,
2013-08-24 07:52:00,71.0,67.0,30.12,SSE,149,0.0,1.0,87,0.00,,,0.00,,2013-08-24 12:52:00,
2013-08-24 08:11:00,71.0,67.0,30.12,SE,131,0.0,1.0,87,0.00,,,0.00,,2013-08-24 13:11:00,
2013-08-24 08:22:00,71.0,67.0,30.13,SE,133,0.0,4.0,87,0.00,,,0.00,,2013-08-24 13:22:00,
2013-08-24 08:52:00,73.0,68.0,30.13,South,183,0.0,3.0,84,0.00,,,0.00,,2013-08-24 13:52:00,
2013-08-24 09:11:00,75.0,69.0,30.13,WSW,246,0.0,4.0,81,0.00,,,0.00,,2013-08-24 14:11:00,
2013-08-24 09:22:00,76.0,69.0,30.13,ESE,115,0.0,2.0,79,0.00,,,0.00,,2013-08-24 14:22:00,
2013-08-24 09:52:00,78.0,69.0,30.13,SE,144,0.0,7.0,75,0.00,,,0.00,,2013-08-24 14:52:00,
2013-08-24 10:12:00,80.0,71.0,30.14,South,172,0.0,5.0,73,0.00,,,0.00,,2013-08-24 15:12:00,
2013-08-24 10:22:00,81.0,71.0,30.14,SE,128,0.0,5.0,71,0.00,,,0.00,,2013-08-24 15:22:00,
2013-08-24 10:45:00,82.0,71.0,30.14,SSE,154,0.0,8.0,70,0.00,,,0.00,,2013-08-24 15:45:00,
2013-08-24 10:54:00,83.0,71.0,30.14,SSE,147,0.0,7.0,68,0.00,,,0.00,,2013-08-24 15:54:00,
2013-08-24 11:13:00,84.0,72.0,30.14,WSW,243,0.0,7.0,67,0.00,,,0.00,,2013-08-24 16:13:00,
2013-08-24 11:23:00,84.0,72.0,30.14,SW,217,0.0,8.0,68,0.00,,,0.00,,2013-08-24 16:23:00,
2013-08-24 11:53:00,85.0,71.0,30.14,SE,128,0.0,5.0,64,0.00,,,0.00,,2013-08-24 16:53:00,
2013-08-24 12:12:00,87.0,72.0,30.14,East,91,1.0,5.0,61,0.00,,,0.00,,2013-08-24 17:12:00,
2013-08-24 12:23:00,86.0,71.0,30.14,WSW,244,0.0,7.0,62,0.00,,,0.00,,2013-08-24 17:23:00,
2013-08-24 12:42:00,87.0,71.0,30.14,SSE,157,0.0,7.0,60,0.00,,,0.00,,2013-08-24 17:42:00,
2013-08-24 12:52:00,88.0,72.0,30.13,SSE,155,0.0,8.0,59,0.00,,,0.00,,2013-08-24 17:52:00,
2013-08-24 13:13:00,88.0,71.0,30.14,ESE,110,2.0,12.0,58,0.00,,,0.00,,2013-08-24 18:13:00,
2013-08-24 13:22:00,89.0,71.0,30.14,SW,226,2.0,7.0,56,0.00,,,0.00,,2013-08-24 18:22:00,
2013-08-24 13:42:00,89.0,72.0,30.14,South,178,0.0,6.0,57,0.00,,,0.00,,2013-08-24 18:42:00,
2013-08-24 13:53:00,89.0,72.0,30.13,NNE,23,0.0,7.0,57,0.00,,,0.00,,2013-08-24 18:53:00,
2013-08-24 14:12:00,88.0,71.0,30.13,ESE,120,0.0,6.0,57,0.00,,,0.00,,2013-08-24 19:12:00,
2013-08-24 14:21:00,89.0,71.0,30.12,SE,144,2.0,11.0,56,0.00,,,0.00,,2013-08-24 19:21:00,
2013-08-24 14:52:00,89.0,71.0,30.12,SE,137,0.0,4.0,55,0.00,,,0.00,,2013-08-24 19:52:00,
2013-08-24 15:11:00,90.0,72.0,30.12,East,79,0.0,7.0,55,0.00,,,0.00,,2013-08-24 20:11:00,
2013-08-24 15:22:00,90.0,69.0,30.11,South,178,0.0,7.0,51,0.00,,,0.00,,2013-08-24 20:22:00,
2013-08-24 15:52:00,91.0,71.0,30.11,SSW,196,0.0,6.0,52,0.00,,,0.00,,2013-08-24 20:52:00,
2013-08-24 16:22:00,90.0,70.0,30.09,SSE,155,1.0,7.0,52,0.00,,,0.00,,2013-08-24 21:22:00,
2013-08-24 16:55:00,91.0,70.0,30.10,SE,144,0.0,6.0,50,0.00,,,0.00,,2013-08-24 21:55:00,
2013-08-24 17:14:00,90.0,69.0,30.10,SE,144,0.0,6.0,50,0.00,,,0.00,,2013-08-24 22:14:00,
2013-08-24 17:24:00,90.0,69.0,30.10,SSW,194,1.0,10.0,51,0.00,,,0.00,,2013-08-24 22:24:00,
2013-08-24 17:53:00,90.0,69.0,30.09,SW,228,0.0,6.0,51,0.00,,,0.00,,2013-08-24 22:53:00,
2013-08-24 18:12:00,89.0,69.0,30.09,SE,138,0.0,8.0,52,0.00,,,0.00,,2013-08-24 23:12:00,
2013-08-24 18:22:00,89.0,70.0,30.09,ESE,103,2.0,11.0,54,0.00,,,0.00,,2013-08-24 23:22:00,
2013-08-24 18:42:00,87.0,69.0,30.09,ESE,115,2.0,8.0,55,0.00,,,0.00,,2013-08-24 23:42:00,
2013-08-24 18:53:00,86.0,68.0,30.08,East,90,2.0,9.0,55,0.00,,,0.00,,2013-08-24 23:53:00,
2013-08-24 19:12:00,85.0,68.0,30.08,East,100,0.0,5.0,56,0.00,,,0.00,,2013-08-25 00:12:00,
2013-08-24 19:22:00,85.0,69.0,30.08,ESE,118,0.0,5.0,58,0.00,,,0.00,,2013-08-25 00:22:00,
2013-08-24 19:42:00,84.0,68.0,30.08,ESE,118,0.0,4.0,59,0.00,,,0.00,,2013-08-25 00:42:00,
2013-08-24 19:52:00,84.0,69.0,30.08,SSE,158,0.0,1.0,60,0.00,,,0.00,,2013-08-25 00:52:00,
2013-08-24 20:11:00,83.0,68.0,30.08,SSE,158,0.0,4.0,61,0.00,,,0.00,,2013-08-25 01:11:00,
2013-08-24 20:22:00,83.0,69.0,30.08,South,171,0.0,3.0,63,0.00,,,0.00,,2013-08-25 01:22:00,
2013-08-24 20:42:00,82.0,69.0,30.09,SE,137,0.0,4.0,65,0.00,,,0.00,,2013-08-25 01:42:00,
2013-08-24 20:52:00,82.0,70.0,30.09,East,93,0.0,2.0,67,0.00,,,0.00,,2013-08-25 01:52:00,
2013-08-24 21:11:00,81.0,69.0,30.09,ESE,115,0.0,5.0,68,0.00,,,0.00,,2013-08-25 02:11:00,
2013-08-24 21:22:00,80.0,69.0,30.10,ESE,102,0.0,2.0,69,0.00,,,0.00,,2013-08-25 02:22:00,
2013-08-24 21:42:00,80.0,69.0,30.11,East,100,0.0,5.0,69,0.00,,,0.00,,2013-08-25 02:42:00,
2013-08-24 21:52:00,80.0,69.0,30.11,ESE,123,0.0,3.0,69,0.00,,,0.00,,2013-08-25 02:52:00,
2013-08-24 22:23:00,79.0,68.0,30.12,East,95,0.0,2.0,70,0.00,,,0.00,,2013-08-25 03:23:00,
2013-08-24 22:54:00,79.0,68.0,30.12,ENE,69,0.0,6.0,69,0.00,,,0.00,,2013-08-25 03:54:00,
2013-08-24 23:02:00,-999.0,-99.9,30.12,SSE,147,0.0,5.0,-999,-99.99,,,-99.99,,2013-08-25 04:02:00,
2013-08-24 23:14:00,78.0,67.0,30.12,SSE,147,0.0,5.0,70,0.00,,,0.00,,2013-08-25 04:14:00,
2013-08-24 23:25:00,78.0,68.0,30.12,SE,140,0.0,2.0,71,0.00,,,0.00,,2013-08-25 04:25:00,
2013-08-24 23:43:00,77.0,68.0,30.13,ESE,111,0.0,1.0,73,0.00,,,0.00,,2013-08-25 04:43:00,
2013-08-24 23:54:00,77.0,68.0,30.13,ESE,102,0.0,6.0,73,0.00,,,0.00,,2013-08-25 04:54:00,